Weather History for KSPD

Nearest airport to NA, NA.

See history from more local stations
Change the Weather History Date:

Friday, August 30, 2013

  Actual Average Record
Temperature  
Mean Temperature 82 °F -  
Max Temperature 99 °F 86 °F 99 °F (2013)
Min Temperature 64 °F 58 °F 54 °F (2012)
Degree Days  
Heating Degree Days 0 0  
Month to date heating degree days 1 0  
Since 1 June heating degree days 20 23  
Since 1 July heating degree days 1 2  
Cooling Degree Days 17 7  
Month to date cooling degree days 321 283  
Year to date cooling degree days 1148 894  
Since 1 June cooling degree days 1031 840  
Growing Degree Days 32 (Base 50)    
Moisture  
Dew Point 47 °F    
Average Humidity 34    
Maximum Humidity 52    
Minimum Humidity 16    
Precipitation  
Precipitation 0.00 in 0.07 in 1.07 in (2002)
Month to date precipitation 2.29 2.78  
Year to date precipitation 9.74 13.68  
Sea Level Pressure  
Sea Level Pressure 29.87 in    
Wind  
Wind Speed 8 mph (East)    
Max Wind Speed 16 mph    
Max Gust Speed 22 mph    
T = Trace of Precipitation, MM = Missing Value Source: NWS Daily Summary

Daily Weather History Graph

Daily Weather History Graph

Search for Another Location

Airport or City:

Trip Planner

Search our weather history database for the weather conditions in past years. The results will help you decide how hot, cold, wet, or windy it might be!

Date:

Astronomy

Aug. 30, 2013 Rise Set
Actual Time 6:19 AM MDT 7:21 PM MDT
Civil Twilight 5:52 AM MDT 7:48 PM MDT
Nautical Twilight 5:20 AM MDT 8:20 PM MDT
Astronomical Twilight 4:47 AM MDT 8:52 PM MDT
Moon 1:03 AM MDT (8/30) 3:35 PM MDT (8/30)
Length of Visible Light 13h 55m
Length of Day
13h 02m
Waning Crescent, 28% of the Moon is Illuminated
Aug 30
Waning Crescent
Sep 5
New
Sep 12
First Quarter
Sep 19
Full
Sep 26
Last Quarter

Hourly Weather History & Observations

Time (MDT) Temp. Dew Point Humidity Pressure Visibility Wind Dir Wind Speed Gust Speed Precip Events Conditions
12:56 AM 66.9 °F 48.9 °F 52% 29.90 in - WSW 5.8 mph - N/A   Unknown
1:56 AM 68.0 °F 48.9 °F 50% 29.88 in - West 3.5 mph - N/A   Unknown
2:56 AM 66.9 °F 48.9 °F 52% 29.87 in - WSW 8.1 mph - N/A   Unknown
3:56 AM 66.0 °F 48.9 °F 54% 29.86 in - West 4.6 mph - N/A   Unknown
4:56 AM 70.0 °F 46.9 °F 44% 29.87 in - WNW 9.2 mph - N/A   Unknown
5:56 AM 66.0 °F 45.0 °F 47% 29.88 in - WNW 11.5 mph - N/A   Unknown
6:56 AM 69.1 °F 44.1 °F 40% 29.91 in - WNW 10.4 mph - N/A   Unknown
7:56 AM 78.1 °F 44.1 °F 30% 29.91 in - NW 11.5 mph - N/A   Unknown
8:56 AM 86.0 °F 45.0 °F 24% 29.91 in - NNW 13.8 mph - N/A   Unknown
9:56 AM 91.0 °F 46.0 °F 21% 29.91 in - North 12.7 mph - N/A   Unknown
10:56 AM 93.9 °F 46.9 °F 20% 29.91 in - NNE 8.1 mph 17.3 mph N/A   Unknown
11:56 AM 95.0 °F 48.9 °F 21% 29.91 in - East 9.2 mph 16.1 mph N/A   Unknown
12:56 PM 96.1 °F 51.1 °F 22% 29.90 in - ESE 15.0 mph 18.4 mph N/A   Unknown
1:56 PM 97.0 °F 48.0 °F 19% 29.87 in - SE 9.2 mph - N/A   Unknown
2:56 PM 98.1 °F 45.0 °F 16% 29.85 in - SE 9.2 mph 16.1 mph N/A   Unknown
3:56 PM 97.0 °F 45.0 °F 17% 29.83 in - ESE 6.9 mph - N/A   Unknown
4:56 PM 98.1 °F 45.0 °F 16% 29.81 in - SE 11.5 mph 18.4 mph N/A   Unknown
5:56 PM 96.1 °F 46.0 °F 18% 29.82 in - ESE 13.8 mph 18.4 mph N/A   Unknown
6:56 PM 91.0 °F 46.9 °F 22% 29.83 in - ESE 9.2 mph - N/A   Unknown
7:56 PM 82.0 °F 48.9 °F 31% 29.84 in - ESE 6.9 mph - N/A   Unknown
8:56 PM 78.1 °F 48.9 °F 36% 29.85 in - ESE 4.6 mph - N/A   Unknown
9:56 PM 73.9 °F 48.9 °F 41% 29.85 in - East 3.5 mph - N/A   Unknown
10:56 PM 73.9 °F 50.0 °F 43% 29.84 in - ESE 5.8 mph - N/A   Unknown
11:56 PM 71.1 °F 50.0 °F 47% 29.84 in - Calm Calm - N/A   Unknown